Regional Weather Roundup
Issued by NWS Green Bay, WI

Home | Current Version | Previous Version | Graphics & Text | Print | Product List | Glossary Off
Versions: 1 2 3 4 5 6 7 8 9 10 11 12 13 14 15 16 17 18 19 20 21 22 23 24 25 26 27 28 29 30 31 32 33 34 35 36 37 38 39 40 41 42 43 44 45 46 47 48 49 50

000
ASUS43 KGRB 291559
RWRGRB

NORTH-CENTRAL AND NORTHEAST WISCONSIN REGIONAL WEATHER ROUNDUP
NATIONAL WEATHER SERVICE GREEN BAY WI
1100 AM CDT FRI AUG 29 2014

WIZ005-009-010>012-018-019-291700-
NORTH CENTRAL WISCONSIN

CITY           SKY/WX    TMP DP  RH WIND       PRES   REMARKS
IRONWOOD       NOT AVBL
MANITOWISH WTR NOT AVBL
ARBOR VITAE    NOT AVBL
EAGLE RIVER    NOT AVBL
LAND O LAKES   NOT AVBL
RHINELANDER    CLOUDY    61  60  97 VRB5      29.93S
PHILLIPS       NOT AVBL
ANTIGO         NOT AVBL
TOMAHAWK       NOT AVBL
MERRILL        NOT AVBL
$$

WIZ013-073-291700-
NORTHEAST WISCONSIN

CITY           SKY/WX    TMP DP  RH WIND       PRES   REMARKS
IRON MOUNTAIN  CLOUDY    61  60  97 SE8       29.92S FOG
MARINETTE      CLOUDY    66  64  94 S8        29.91F
$$

WIZ017-030-035>037-045-291700-
CENTRAL WISCONSIN

CITY           SKY/WX    TMP DP  RH WIND       PRES   REMARKS
MEDFORD        NOT AVBL
WAUSAU         CLOUDY    63  62  97 SE8       29.90F FOG
MOSINEE        NOT AVBL
MARSHFIELD     CLOUDY    67  65  93 S10       29.90S FOG
WISC RAPIDS    CLOUDY    69  66  90 S6        29.91F
STEVENS POINT  NOT AVBL
WAUPACA        NOT AVBL
SHAWANO        NOT AVBL
CLINTONVILLE   NOT AVBL
$$

WIZ038-039-048-051-291700-
FOX VALLEY

CITY           SKY/WX    TMP DP  RH WIND       PRES   REMARKS
NWS GREEN BAY  CLOUDY    73  69  87 S12       29.92F
APPLETON       PTSUNNY   73  68  83 S12       29.93F
OSHKOSH        SUNNY     77  70  79 S14       29.91F
FOND DU LAC    SUNNY     79  68  69 S15G22    29.92F
$$

WIZ022-050-052-291700-
EAST CENTRAL WISCONSIN

CITY           SKY/WX    TMP DP  RH WIND       PRES   REMARKS
STURGEON BAY   CLOUDY    66  64  94 S18G24    29.94S
MANITOWOC      NOT AVBL
SHEBOYGAN      MOSUNNY   76  69  79 S10       29.94F
$$

LMZ563-521-522-541>543-291700-
LAKESHORE

STATION/POSITION TIME  TEMP    WIND        PRES    VSBY  WAVE
                       AIR SEA DIR/SP/G                  HT/PER
                 (UTC) (F)     (DEG/KT/KT) (MB)    (MI)  (FT/S)
SHEBOYGAN LKSHOR 1500   68 69  170/ 13/ 15 1014.4F
KEWAUNEE LKSHORE 1500   67     170/ 13/ 16 1013.5F
TWO RIVERS CG    1500                      1014.1      6   4
NORTHPORT PIER   1500   64     150/  9/ 16 1014.6F
N MID LAKE BUOY  1500   63 65  150/ 16/ 19 1015.1F
S GREEN BAY BUOY 1500   69     VRB 14/ 17  1014.1F
STURGEON BAY CG  1500   65 64  180/ 12     1015.1      6   3
CHAMBERS ISLAND  1500   64     120/  7/ 11 1014.2S
MENOMINEE LKSHOR 1500   68     160/ 13/ 16 1013.9F
$$


USA.gov is the U.S. government's official web portal to all federal, state and local government web resources and services.